TimeCET,TemperatureF,Dew PointF,Humidity,Sea Level PressureIn,VisibilityMPH,Wind Direction,Wind SpeedMPH,Gust SpeedMPH,PrecipitationIn,Events,Conditions,WindDirDegrees,DateUTC
12:00 AM,42.8,41.0,93,29.74,5.6,ESE,4.6,-,N/A,,Overcast,120,2012-11-26 23:00:00
12:21 AM,42.8,41.0,93,29.74,6.2,ESE,6.9,-,N/A,Rain,Light Rain,110,2012-11-26 23:21:00
12:30 AM,42.8,41.0,93,29.74,5.6,SSE,5.8,-,N/A,Rain,Light Rain,150,2012-11-26 23:30:00
1:00 AM,42,41,93,29.79,6,South,2.2,,,Rain,Light Rain,170,2012-11-27 00:00:00
1:00 AM,42.8,41.0,93,29.74,5.6,South,3.5,-,N/A,Rain,Light Rain,170,2012-11-27 00:00:00
1:30 AM,42.8,41.0,93,29.74,5.0,East,3.5,-,N/A,Rain,Light Rain,100,2012-11-27 00:30:00
2:00 AM,42.8,41.0,93,29.74,4.3,SSE,3.5,-,N/A,,Overcast,150,2012-11-27 01:00:00
2:30 AM,42.8,41.0,93,29.71,4.3,ESE,4.6,-,N/A,,Mostly Cloudy,110,2012-11-27 01:30:00
3:00 AM,42.8,41.0,93,29.71,4.3,ESE,4.6,-,N/A,,Overcast,120,2012-11-27 02:00:00
3:30 AM,42.8,41.0,93,29.71,4.3,Variable,2.3,-,N/A,,Overcast,0,2012-11-27 02:30:00
4:00 AM,41.0,41.0,100,29.71,4.3,ENE,2.3,-,N/A,,Overcast,60,2012-11-27 03:00:00
4:30 AM,42.8,41.0,93,29.71,3.7,Variable,2.3,-,N/A,,Overcast,0,2012-11-27 03:30:00
5:00 AM,42.8,41.0,93,29.71,5.6,Variable,2.3,-,N/A,,Overcast,0,2012-11-27 04:00:00
5:30 AM,42.8,41.0,93,29.71,5.6,ESE,3.5,-,N/A,,Overcast,110,2012-11-27 04:30:00
6:00 AM,41.0,41.0,100,29.71,5.0,SSE,3.5,-,N/A,,Overcast,150,2012-11-27 05:00:00
6:30 AM,41.0,41.0,100,29.71,5.0,SSW,4.6,-,N/A,,Overcast,210,2012-11-27 05:30:00
7:00 AM,42,40,89,29.76,6,,2.2,,,,Mist,,2012-11-27 06:00:00
7:00 AM,41.0,39.2,93,29.71,5.6,Variable,2.3,-,N/A,,Overcast,0,2012-11-27 06:00:00
7:30 AM,41.0,39.2,93,29.71,4.3,Variable,2.3,-,N/A,,Overcast,0,2012-11-27 06:30:00
8:00 AM,41.0,39.2,93,29.71,4.3,Variable,2.3,-,N/A,,Overcast,0,2012-11-27 07:00:00
8:30 AM,41.0,41.0,100,29.74,3.7,SSE,3.5,-,N/A,,Overcast,160,2012-11-27 07:30:00
9:00 AM,41.0,41.0,100,29.74,3.1,Variable,2.3,-,N/A,,Overcast,0,2012-11-27 08:00:00
9:30 AM,42.8,41.0,93,29.74,2.5,South,3.5,-,N/A,,Overcast,190,2012-11-27 08:30:00
10:00 AM,42.8,41.0,93,29.74,1.9,SSW,3.5,-,N/A,,Overcast,210,2012-11-27 09:00:00
10:30 AM,41.0,41.0,100,29.74,1.9,WSW,3.5,-,N/A,,Light Drizzle,240,2012-11-27 09:30:00
11:00 AM,42.8,41.0,93,29.74,2.2,West,2.3,-,N/A,,Overcast,280,2012-11-27 10:00:00
11:30 AM,42.8,41.0,93,29.71,2.5,Calm,Calm,-,N/A,,Overcast,0,2012-11-27 10:30:00
12:00 PM,42.8,41.0,93,29.74,2.2,WSW,3.5,-,N/A,,Overcast,240,2012-11-27 11:00:00
12:30 PM,42.8,41.0,93,29.74,1.6,WNW,3.5,-,N/A,,Overcast,300,2012-11-27 11:30:00
1:00 PM,42,41,94,29.77,1,NNW,4.5,,,,Mist,340,2012-11-27 12:00:00
1:00 PM,42.8,41.0,93,29.74,1.4,Variable,2.3,-,N/A,,Overcast,0,2012-11-27 12:00:00
1:30 PM,42.8,41.0,93,29.71,1.4,Variable,2.3,-,N/A,,Overcast,0,2012-11-27 12:30:00
1:45 PM,42.8,41.0,93,29.71,1.9,Variable,2.3,-,N/A,,Overcast,0,2012-11-27 12:45:00
2:00 PM,42.8,41.0,93,29.71,2.2,Variable,2.3,-,N/A,,Overcast,0,2012-11-27 13:00:00
2:30 PM,42.8,41.0,93,29.71,2.5,East,4.6,-,N/A,,Overcast,100,2012-11-27 13:30:00
3:00 PM,42.8,41.0,93,29.71,2.2,South,4.6,-,N/A,,Overcast,170,2012-11-27 14:00:00
3:30 PM,42.8,41.0,93,29.71,2.5,South,3.5,-,N/A,,Overcast,180,2012-11-27 14:30:00
4:00 PM,42.8,41.0,93,29.71,2.2,West,5.8,-,N/A,,Overcast,260,2012-11-27 15:00:00
4:30 PM,42.8,41.0,93,29.71,2.5,Variable,2.3,-,N/A,,Overcast,0,2012-11-27 15:30:00
4:52 PM,42.8,41.0,93,29.71,1.7,Variable,2.3,-,N/A,,Light Drizzle,0,2012-11-27 15:52:00
5:00 PM,42.8,41.0,93,29.71,1.7,Variable,2.3,-,N/A,,Light Drizzle,0,2012-11-27 16:00:00
5:08 PM,42.8,41.0,93,29.71,1.6,Calm,Calm,-,N/A,,Light Drizzle,0,2012-11-27 16:08:00
5:30 PM,42.8,41.0,93,29.71,1.7,Calm,Calm,-,N/A,,Light Drizzle,0,2012-11-27 16:30:00
6:00 PM,41.0,41.0,100,29.71,1.6,ENE,4.6,-,N/A,,Light Drizzle,60,2012-11-27 17:00:00
6:30 PM,41.0,41.0,100,29.71,2.2,Variable,2.3,-,N/A,,Overcast,0,2012-11-27 17:30:00
6:48 PM,41.0,41.0,100,29.71,2.8,Variable,1.2,-,N/A,,Overcast,0,2012-11-27 17:48:00
7:00 PM,42,41,95,29.75,3,WNW,2.2,,,Rain,Light Drizzle,300,2012-11-27 18:00:00
7:00 PM,41.0,41.0,100,29.71,2.8,Variable,2.3,-,N/A,,Overcast,0,2012-11-27 18:00:00
7:30 PM,41.0,41.0,100,29.71,1.6,North,3.5,-,N/A,,Overcast,10,2012-11-27 18:30:00
8:00 PM,41.0,41.0,100,29.71,1.6,NE,3.5,-,N/A,,Overcast,40,2012-11-27 19:00:00
8:30 PM,41.0,41.0,100,29.71,1.9,Variable,1.2,-,N/A,,Overcast,0,2012-11-27 19:30:00
8:51 PM,41.0,41.0,100,29.71,1.9,North,3.5,-,N/A,,Overcast,10,2012-11-27 19:51:00
9:00 PM,41.0,41.0,100,29.71,2.2,NNE,3.5,-,N/A,,Overcast,20,2012-11-27 20:00:00
9:14 PM,41.0,41.0,100,29.71,2.5,NE,3.5,-,N/A,,Overcast,50,2012-11-27 20:14:00
9:30 PM,41.0,41.0,100,29.71,1.9,East,2.3,-,N/A,,Overcast,80,2012-11-27 20:30:00
9:42 PM,41.0,41.0,100,29.71,1.6,ENE,2.3,-,N/A,,Overcast,70,2012-11-27 20:42:00
10:00 PM,41.0,41.0,100,29.68,1.6,ENE,3.5,-,N/A,,Overcast,60,2012-11-27 21:00:00
10:30 PM,41.0,41.0,100,29.68,1.6,ENE,3.5,-,N/A,,Overcast,60,2012-11-27 21:30:00
11:00 PM,41.0,41.0,100,29.68,1.6,NE,5.8,-,N/A,,Overcast,50,2012-11-27 22:00:00
11:13 PM,41.0,41.0,100,29.68,0.7,NE,4.6,-,N/A,,Overcast,50,2012-11-27 22:13:00
11:30 PM,41.0,41.0,100,29.68,0.8,NE,3.5,-,N/A,,Overcast,40,2012-11-27 22:30:00
11:45 PM,41.0,41.0,100,29.68,1.0,NE,3.5,-,N/A,,Overcast,50,2012-11-27 22:45:00